Вернуться в каталог

EKRAN 14

АктивенСвязьGEO
NORAD 15626·PAYLOAD·🇷🇺 Russia

Запущен Mar 22, 1985 с Baikonur Cosmodrome

Loading…

TLE

СвежийSource: Space-Track

Эпоха: Sep 14, 2026, 08:42 UTC

1 15626U 85024A   26257.36251841 -.00000138  00000-0  00000-0 0  9994
2 15626  11.7994 320.6426 0019053 357.5420 171.9452  0.94798249123120

Отслеживайте EKRAN 14 в реальном времени с AllMySat

Download on the App Store